Location: Cudham
(51.3000°N, 0.0667°E)
Time: 15:28:23
(UTC+00:00)

USA 229 DEB - Pass Details

Date: 21 April 2026
Orbit: 844 x 1364 km, 63.4° (Epoch: 10 January)

Event Time Altitude Azimuth Distance (km) Brightness Sun altitude
Rises 22:01:29 0° 308° (NW) 3,830 7.8 -21.7°
Reaches altitude 10° 22:04:10 10° 315° (NW) 2,950 7.1 -21.9°
Maximum altitude 22:10:57 45° 28° (NNE) 1,585 4.8 -22.4°
Enters shadow 22:17:33 14° 96° (E) 2,989 5.7 -22.9°
